Regional Weather Roundup
Issued by NWS

Home | Current Version | Previous Version | Graphics & Text | Print | Product List | Glossary On
Versions: 1 2 3 4 5 6 7 8 9 10 11 12 13 14 15 16 17 18 19 20 21 22 23 24 25 26 27 28 29 30 31 32 33 34 35 36 37 38 39 40 41 42 43 44 45 46 47 48 49 50
000
ASUS43 KLMK 010202
RWRKY
KENTUCKY REGIONAL WEATHER ROUNDUP
NATIONAL WEATHER SERVICE LOUISVILLE KY
1000 PM EDT SUN APR 30 2017

NOTE "FAIR" INDICATES FEW OR NO CLOUDS BELOW 12,000 FEET
WITH NO SIGNIFICANT WEATHER AND/OR OBSTRUCTIONS TO VISIBILITY.

KYZ001>023-026-027-061>063-070>075-010300-
WESTERN AND SOUTH CENTRAL KENTUCKY

CITY           SKY/WX    TMP DP  RH WIND       PRES   REMARKS
PADUCAH        CLOUDY    70  63  78 S10G26    29.63S
HENDERSON        N/A    N/A N/A N/A MISG        N/A
OWENSBORO      CLOUDY    70  62  76 S17G25    29.69F
HOPKINSVILLE   CLOUDY    70  63  78 S14G22    29.70F
BOWLING GREEN  CLOUDY    70  64  81 S10       29.77S
GLASGOW        NOT AVBL
$$

KYZ024-025-028>034-038-045-046-053-010300-
NORTH CENTRAL KENTUCKY

CITY           SKY/WX    TMP DP  RH WIND       PRES   REMARKS
LOUISVILLE/SDF CLOUDY    71  64  78 S8        29.76R
LOUISVILLE/LOU MOCLDY    70  65  84 S7        29.77R
FORT KNOX      MOCLDY    69  63  81 S13G21    29.76S
$$

KYZ035>037-039>044-047>052-055>060-089>105-010300-
NORTHEAST KENTUCKY

CITY           SKY/WX    TMP DP  RH WIND       PRES   REMARKS
LEXINGTON      LGT RAIN  69  63  81 SE13G21   29.83F
COVINGTON      CLOUDY    69  63  81 S23       29.77F
FRANKFORT      CLOUDY    69  62  78 SE17G24   29.78F
$$

KYZ054-064>069-076>088-106>120-010300-
SOUTHEAST KENTUCKY

CITY           SKY/WX    TMP DP  RH WIND       PRES   REMARKS
JACKSON        CLOUDY    77  56  48 VRB3      29.92S
LONDON         CLOUDY    71  60  68 S14G21    29.94R
SOMERSET       LGT RAIN  66  64  94 S7        29.90S
MIDDLESBORO    CLOUDY    76  59  56 SW6G16    29.97R
MONTICELLO     LGT RAIN  67  64  90 SE16G22   29.90F
$$





USA.gov is the U.S. government's official web portal to all federal, state and local government web resources and services.